Elsenborn, Belgium

10:54 PM CEST on September 19, 2017 (GMT +0200)
Elsenborn

Weather History for EBLB - April, 2014

Change the Weather History Date:

Thursday, April 17, 2014

  Actual Average Record
Temperature  
Mean Temperature 43 °F -  
Max Temperature 60 °F 51 °F 70 °F (2013)
Min Temperature 26 °F 40 °F 18 °F (2012)
Degree Days  
Heating Degree Days 22    
Moisture  
Dew Point 28 °F    
Average Humidity 51    
Maximum Humidity 93    
Minimum Humidity 19    
Precipitation  
Precipitation 0.01 in - - ()
Sea Level Pressure  
Sea Level Pressure 30.17 in    
Wind  
Wind Speed 4 mph ()    
Max Wind Speed 9 mph    
Max Gust Speed -    
Visibility 6.7 miles    
Events      
Averages and records for this station are not official NWS values.
T = Trace of Precipitation, MM = Missing Value Source: Averaged Metar Reports

Daily Weather History Graph

Daily Weather History Graph

Search for Another Location

Airport or City:

Trip Planner

Search our weather history database for the weather conditions in past years. The results will help you decide how hot, cold, wet, or windy it might be!

Date:

Astronomy

Apr. 17, 2014 Rise Set
Actual Time 6:37 AM CEST 8:32 PM CEST
Civil Twilight 6:03 AM CEST 9:07 PM CEST
Nautical Twilight 5:20 AM CEST 9:51 PM CEST
Astronomical Twilight 4:31 AM CEST 10:39 PM CEST
Moon 11:14 PM CEST (4/17) 7:47 AM CEST (4/17)
Length of Visible Light 15h 04m
Length of Day
13h 55m
Waning Gibbous, 95% of the Moon is Illuminated
Apr 17
Waning Gibbous
Apr 22
Last Quarter
Apr 29
New
May 7
First Quarter
May 14
Full

Hourly Weather History & Observations

Time (CEST) Temp. Windchill Dew Point Humidity Pressure Visibility Wind Dir Wind Speed Gust Speed Precip Events Conditions
12:00 AM 33 °F - 27 °F 71% 30.41 in 28 mi 2.2 mph - -  
12:25 AM 33.8 °F - 28.4 °F 81% 30.30 in 6.2 mi Variable 1.2 mph - N/A   Unknown
1:00 AM 31 °F - 27 °F 78% 30.42 in 31 mi 2.2 mph - -  
1:25 AM 32.0 °F - 28.4 °F 87% 30.30 in 6.2 mi Variable 2.3 mph - N/A   Unknown
2:00 AM 29 °F - 26 °F 82% 30.40 in 28 mi 2.2 mph - -  
2:25 AM 30.2 °F - 26.6 °F 86% 30.30 in 6.2 mi Variable 1.2 mph - N/A   Unknown
3:00 AM 30 °F - 27 °F 83% 30.39 in 25 mi 2.2 mph - -  
3:25 AM 28.4 °F - 24.8 °F 86% 30.27 in 6.2 mi Variable 1.2 mph - N/A   Unknown
4:00 AM 30 °F - 26 °F 79% 30.38 in 25 mi 2.2 mph - -  
4:25 AM 28.4 °F - 24.8 °F 86% 30.27 in 6.2 mi Variable 1.2 mph - N/A   Unknown
5:00 AM 30 °F - 27 °F 82% 30.37 in 22 mi 2.2 mph - -  
5:25 AM 30.2 °F - 26.6 °F 86% 30.27 in 6.2 mi Variable 2.3 mph - N/A   Clear
6:00 AM 27 °F - 24 °F 85% 30.37 in 31 mi 2.2 mph - -  
6:25 AM 26.6 °F - 23.0 °F 86% 30.24 in 6.2 mi Variable 1.2 mph - N/A   Partly Cloudy
7:00 AM 27 °F - 25 °F 87% 30.36 in 28 mi 2.2 mph - -   Clear
7:25 AM 28.4 °F - 26.6 °F 93% 30.24 in 6.2 mi Variable 2.3 mph - N/A   Partly Cloudy
8:00 AM 32 °F - 28 °F 80% 30.33 in 28 mi 2.2 mph - -   Clear
8:25 AM 37.4 °F - 30.2 °F 75% 30.24 in 6.2 mi Calm Calm - N/A   Partly Cloudy
9:00 AM 44 °F - 30 °F 47% 30.27 in 28 mi SSW 4.5 mph - -   Clear
9:25 AM 44.6 °F 40.7 °F 26.6 °F 49% 30.24 in 6.2 mi SW 6.9 mph - N/A   Partly Cloudy
10:00 AM 47 °F - 27 °F 33% 30.26 in 28 mi SSW 6.7 mph - -   Clear
10:25 AM 48.2 °F - 28.4 °F 46% 30.21 in 6.2 mi SSW 8.1 mph - N/A   Partly Cloudy
11:00 AM 49 °F - 28 °F 31% 30.23 in 28 mi SSW 8.9 mph - -   Clear
11:25 AM 50.0 °F - 26.6 °F 40% 30.18 in 6.2 mi South 8.1 mph - N/A   Scattered Clouds
12:00 PM 53 °F - 29 °F 28% 30.19 in 28 mi SSW 4.5 mph - -   Clear
12:25 PM 53.6 °F - 28.4 °F 38% 30.18 in 6.2 mi SW 9.2 mph - N/A   Mostly Cloudy
1:00 PM 53 °F - 26 °F 23% 30.16 in 28 mi SW 6.7 mph - -   Clear
1:25 PM 55.4 °F - 28.4 °F 36% 30.15 in 6.2 mi SW 8.1 mph - N/A   Mostly Cloudy
2:00 PM 55 °F - 26 °F 20% 30.14 in 28 mi SW 6.7 mph - -   Clear
2:25 PM 57.2 °F - 28.4 °F 33% 30.12 in 6.2 mi West 6.9 mph - N/A   Mostly Cloudy
3:00 PM 57 °F - 28 °F 21% 30.09 in 28 mi SW 6.7 mph - -   Clear
3:25 PM 57.2 °F - 26.6 °F 31% 30.09 in 6.2 mi SW 8.1 mph - N/A   Scattered Clouds
4:00 PM 59 °F - 28 °F 19% 30.05 in 28 mi WSW 8.9 mph - -   Clear
4:25 PM 59.0 °F - 26.6 °F 29% 30.06 in 6.2 mi WSW 8.1 mph - N/A   Partly Cloudy
5:00 PM 59 °F - 29 °F 20% 30.03 in 28 mi West 6.7 mph - -   Clear
5:25 PM 60.8 °F - 28.4 °F 29% 30.04 in 6.2 mi SW 6.9 mph - N/A   Unknown
6:00 PM 60 °F - 29 °F 20% 29.99 in 25 mi SW 6.7 mph - -  
6:25 PM 59.0 °F - 28.4 °F 31% 30.01 in 6.2 mi WSW 9.2 mph - N/A   Unknown
7:00 PM 57 °F - 27 °F 20% 29.99 in 31 mi West 6.7 mph - -   Scattered Clouds
7:25 PM 55.4 °F - 24.8 °F 31% 29.98 in 6.2 mi West 6.9 mph - N/A   Scattered Clouds
8:00 PM 54 °F - 27 °F 23% 29.98 in 28 mi West 4.5 mph - -   Scattered Clouds
8:25 PM 53.6 °F - 28.4 °F 38% 29.98 in 6.2 mi WNW 5.8 mph - N/A   Mostly Cloudy
9:00 PM 53 °F - 29 °F 27% 29.99 in 31 mi West 4.5 mph - -   Scattered Clouds
9:25 PM 51.8 °F - 28.4 °F 41% 29.98 in 6.2 mi West 4.6 mph - N/A   Mostly Cloudy
10:00 PM 51 °F - 30 °F 32% 29.99 in 28 mi WNW 4.5 mph - -   Scattered Clouds
10:25 PM 51.8 °F - 30.2 °F 44% 29.98 in 6.2 mi WNW 5.8 mph - N/A   Mostly Cloudy
11:00 PM 50 °F - 31 °F 36% 29.97 in 19 mi West 4.5 mph - -   Clear
11:25 PM 50.0 °F - 33.8 °F 54% 29.95 in 6.2 mi West 6.9 mph - N/A   Mostly Cloudy